Wind_Speed
8 7 7 6 6 6 6 6 6 6 6 6 6 6 5 5 6 7 7 8 8 8 8 8 9 9 8 8 8 9 10 10 10 12 12 8 7 11 10 10 14 16 19 18 16 16 14 13 12 11 11 9 7 5 5 3 4 4 2 2 2 2 2 4 6 5 11 13 13 15 16 14 13 13 12 11 11 11 11 9 10 11 12 18 22 26 25 22
8 7 6 6 5 5 5 6 6 6 6 6 7 7 7 6 6 6 7 8 8 8 8 8 8 9 9 9 9 9 9 9 11 14 12 7 7 11 13 13 13 16 20 20 18 17 16 15 15 13 11 8 6 5 3 3 5 3 0 2 1 4 0 2 7 7 10 14 14 14 14 13 14 15 14 11 12 13 12 11 14 16 18 22 24 25 23 22
10 8 6 6 5 5 5 5 6 6 6 7 7 7 8 8 7 6 7 7 8 8 9 8 8 8 8 8 9 9 7 9 10 9 9 9 10 11 14 15 14 16 20 20 18 16 14 15 15 14 10 7 5 3 3 4 4 1 2 0 2 3 3 6 9 7 11 16 15 13 13 13 14 14 12 11 13 13 12 14 17 19 21 24 24 23 22 21
12 10 7 6 6 6 5 5 6 6 7 8 8 8 8 9 8 7 7 7 7 8 8 8 8 7 7 8 8 7 7 8 4 2 6 8 10 12 15 16 14 17 19 17 15 13 11 13 14 12 9 6 4 4 3 3 2 0 1 1 1 3 3 8 9 8 13 17 15 14 13 13 13 11 11 13 12 10 11 14 18 22 24 25 25 24 22 21
13 11 9 6 6 6 5 5 6 6 7 8 9 9 9 9 9 8 7 7 7 7 7 7 7 7 7 7 6 6 6 3 3 1 5 6 11 12 14 15 15 18 21 18 14 12 12 13 13 11 9 5 5 5 3 2 3 2 2 2 3 4 4 7 9 10 15 16 15 14 13 13 12 10 13 12 5 7 11 13 18 24 26 26 26 24 22 21
14 12 10 7 6 6 5 5 6 6 7 8 9 10 10 10 10 9 8 7 7 6 6 5 5 6 6 7 6 4 5 2 4 2 3 5 11 11 12 15 15 19 22 19 15 13 13 13 13 11 9 5 4 3 2 3 4 1 3 5 5 5 5 7 9 12 16 16 15 13 12 14 12 11 12 7 4 9 13 13 19 24 25 25 25 24 22 21
13 12 10 8 6 5 4 4 5 7 8 8 8 9 10 11 11 10 8 7 7 6 6 4 4 5 6 7 6 4 6 4 6 3 1 5 12 11 11 15 15 19 22 20 16 14 14 14 13 10 8 4 3 3 1 1 2 3 2 6 4 5 6 7 9 13 16 15 15 13 14 13 11 11 10 6 8 12 14 15 20 23 24 24 23 22 21 20
12 11 9 7 6 4 3 4 5 7 8 9 9 9 10 11 11 11 9 7 6 6 5 4 3 3 4 5 5 5 6 5 4 2 0 4 11 11 13 16 17 19 21 20 18 16 15 14 12 10 7 2 1 3 1 2 4 3 2 6 4 6 7 8 10 13 15 14 14 14 13 12 11 11 9 8 10 13 15 17 20 23 24 22 21 21 20 19
11 10 8 7 6 4 3 4 6 8 10 10 9 9 10 10 11 10 9 7 5 5 4 4 3 3 3 3 5 5 3 3 4 2 1 4 9 12 15 17 19 21 20 19 17 16 14 14 12 7 3 2 1 2 1 3 3 2 2 6 6 8 8 9 11 14 15 14 14 14 12 11 13 12 9 9 12 15 17 17 20 23 23 21 20 20 20 19
11 9 8 8 6 5 5 6 8 9 10 11 10 9 9 9 10 9 8 6 4 4 3 3 3 2 2 2 5 4 2 1 3 4 4 6 8 12 15 17 20 21 19 19 16 16 14 11 12 6 2 3 3 3 1 3 1 4 5 7 7 9 9 9 12 13 14 14 15 13 12 13 13 8 6 10 14 17 18 18 19 21 21 20 20 19 19 19
10 8 8 7 6 6 6 7 8 9 11 12 11 10 9 9 9 8 6 5 4 3 3 2 2 2 2 1 6 3 2 0 4 6 5 8 8 11 15 17 20 19 18 18 16 15 11 8 11 7 2 3 4 2 0 1 3 6 8 9 7 9 10 9 12 14 13 11 13 14 12 13 10 5 8 15 15 18 19 19 19 20 20 19 19 19 18 18
10 7 6 6 6 6 6 7 8 10 12 12 12 10 9 8 7 5 4 3 3 2 2 2 2 2 2 4 7 4 2 2 6 8 7 9 9 12 14 16 17 16 16 16 15 14 9 7 11 10 2 1 4 2 2 1 4 8 7 6 8 8 8 9 9 10 10 8 12 15 11 9 8 7 13 17 16 18 18 18 20 19 19 19 18 18 17 17
9 6 5 5 5 5 6 8 9 11 12 12 11 9 8 7 5 3 1 2 2 2 1 2 2 1 3 4 5 4 4 3 7 10 9 9 9 11 13 16 16 13 13 14 14 13 8 7 10 10 4 3 2 1 2 2 4 7 6 4 7 6 7 9 6 6 7 6 9 8 7 7 7 10 14 16 17 19 18 18 19 19 18 19 18 18 17 16
9 6 4 4 4 5 6 9 10 11 12 11 9 7 6 4 3 1 1 1 1 2 2 2 2 2 3 3 1 4 6 5 8 10 10 11 10 10 11 14 15 12 11 10 11 12 8 5 7 8 6 6 2 1 3 4 5 6 5 5 5 3 5 9 6 7 8 5 5 2 3 7 7 11 14 15 18 18 18 18 19 20 19 18 18 18 17 16
8 6 4 3 4 5 7 9 10 11 12 10 7 5 4 2 1 2 2 2 1 2 2 2 2 1 4 4 2 4 7 6 7 9 11 11 10 11 11 11 12 10 9 8 10 11 8 5 7 7 6 6 5 5 6 6 6 6 4 6 6 4 5 8 5 5 6 5 4 3 3 7 7 12 15 14 17 17 17 18 19 20 20 19 18 18 17 16
8 5 4 4 4 5 7 9 10 11 10 8 6 5 4 3 3 3 3 3 2 2 2 1 1 3 5 2 5 5 7 7 7 11 12 10 8 10 12 12 11 10 8 8 9 11 8 7 8 7 6 5 7 7 5 6 6 6 5 5 5 6 5 7 5 6 6 8 5 3 2 7 7 13 16 15 17 17 16 19 20 20 20 19 18 18 17 16
7 5 4 4 4 6 8 8 9 10 8 7 7 6 5 5 4 4 4 4 4 4 2 1 2 4 4 4 7 6 7 8 9 12 13 11 9 10 14 13 12 11 9 8 9 12 10 9 8 5 6 6 6 6 6 7 6 5 6 4 2 6 6 6 5 7 9 9 7 4 2 7 10 14 17 16 17 16 16 19 20 20 19 19 18 18 17 16
6 4 3 4 4 5 7 8 8 8 7 6 7 8 8 6 3 3 3 4 6 5 4 2 3 4 2 7 6 6 8 9 11 13 12 11 10 12 14 12 13 13 11 10 10 13 12 10 9 6 6 7 5 7 7 4 5 7 7 4 3 6 8 8 5 9 12 9 8 7 4 7 12 14 16 17 17 16 15 18 20 20 19 18 18 18 17 16
6 4 3 4 4 5 6 7 7 7 7 6 8 8 8 6 2 0 4 7 6 5 3 2 5 3 2 7 5 6 8 10 13 13 11 10 11 13 13 11 13 15 13 10 10 14 13 9 9 6 6 8 8 10 5 1 4 5 1 4 2 5 5 8 7 9 12 8 9 9 5 8 12 13 15 17 17 16 15 18 19 19 19 18 18 18 17 17
5 3 3 4 4 5 5 5 5 6 7 7 10 8 5 5 1 2 4 7 6 5 5 2 5 5 1 6 5 5 10 11 11 12 12 11 14 15 12 13 14 13 11 9 10 13 14 9 7 8 8 10 10 8 4 3 5 3 4 4 2 4 4 9 8 9 10 6 7 9 6 8 11 11 14 17 17 16 16 18 19 20 20 19 18 18 18 17
4 3 3 3 4 4 3 4 3 4 5 6 8 6 5 7 4 3 5 5 4 4 6 4 6 7 2 3 2 5 9 10 10 13 13 12 15 14 12 14 12 9 10 11 10 10 12 9 9 11 6 4 5 4 3 2 4 5 7 5 4 3 2 7 7 10 12 6 6 10 8 8 10 10 13 17 16 15 17 19 19 21 20 19 19 18 18 17
3 2 3 3 4 2 2 3 2 3 3 3 6 5 5 7 6 7 8 5 1 3 5 4 6 6 3 3 5 9 10 10 13 14 13 13 14 10 11 13 10 8 10 11 9 9 10 9 11 10 3 1 2 3 5 3 3 5 6 6 4 3 4 6 6 9 9 3 4 10 10 8 10 9 10 15 15 15 18 18 19 21 21 19 19 18 18 17
3 1 2 3 3 1 2 2 2 3 2 2 4 3 4 7 7 8 8 6 1 2 1 3 4 3 3 4 8 12 10 10 14 14 14 14 11 8 12 13 10 9 11 11 10 9 9 10 10 8 3 5 5 5 6 5 5 5 5 6 4 5 4 3 6 8 7 4 4 9 8 7 9 9 8 13 16 15 17 18 18 20 20 20 19 18 19 19
2 1 1 3 3 2 2 2 3 3 2 5 5 3 6 8 9 9 6 5 1 4 2 1 1 1 3 4 9 11 8 9 12 14 15 13 9 9 12 12 10 10 11 13 13 11 7 4 7 8 5 7 7 7 7 6 6 4 5 5 3 6 5 1 7 9 7 6 6 7 5 5 8 10 9 12 15 15 16 18 18 19 19 19 19 18 18 19
1 1 1 2 3 2 2 4 4 4 4 6 5 5 8 10 9 8 6 4 4 5 2 2 1 1 3 4 8 7 6 9 9 13 15 12 9 8 8 9 9 9 12 15 14 11 5 3 5 8 8 7 7 8 8 7 6 5 6 4 1 4 4 2 8 8 5 6 7 8 5 4 7 11 10 10 11 13 15 18 19 20 20 20 20 19 19 19
2 2 1 1 2 2 2 3 4 4 6 5 5 6 9 9 9 8 6 3 6 3 2 4 2 3 4 4 8 7 8 9 7 10 13 10 8 6 6 8 7 6 11 12 9 6 4 6 7 8 9 9 8 8 7 7 6 4 6 5 1 2 4 5 8 7 4 3 7 10 5 0 5 10 11 11 12 13 14 17 19 21 21 21 21 20 20 19
2 2 2 1 2 3 2 3 4 6 5 4 5 8 7 8 8 7 6 3 6 2 1 3 1 4 4 5 9 7 6 12 10 9 11 9 8 7 7 8 5 5 9 8 6 4 5 7 7 7 9 10 8 8 7 7 8 1 6 6 5 3 5 6 7 6 4 0 5 11 7 2 5 8 13 15 14 13 14 15 18 20 21 21 21 21 21 20
3 3 2 1 2 3 3 5 5 5 4 4 7 8 7 8 8 6 6 3 6 2 0 4 3 4 4 6 8 4 6 14 10 9 10 8 8 7 7 9 8 7 9 8 5 6 8 9 8 8 9 8 9 8 5 7 9 1 4 3 6 4 3 5 6 4 4 4 4 9 9 5 3 6 13 16 15 15 17 16 17 20 22 22 21 21 21 21
3 4 2 2 2 3 4 5 4 4 5 6 7 7 7 8 6 6 5 3 3 2 2 3 3 5 6 7 6 4 8 9 4 10 13 9 6 5 2 7 10 8 10 10 5 5 6 8 7 9 8 6 8 7 5 8 8 0 1 5 5 4 3 3 4 2 4 6 5 7 9 6 2 6 9 12 13 15 16 15 17 21 22 22 22 22 22 21
4 4 3 2 2 2 4 4 4 5 6 7 7 6 5 5 5 5 2 4 1 2 3 1 2 5 9 9 6 6 8 5 5 13 12 8 8 4 3 5 6 5 8 9 8 2 5 2 3 7 9 6 7 6 5 9 7 2 4 7 6 5 3 2 2 2 3 6 6 6 10 7 3 4 7 8 10 13 14 13 16 20 22 22 23 23 23 23
5 5 4 3 2 3 4 3 4 7 7 7 7 5 4 5 5 1 6 3 1 3 3 3 3 5 8 6 5 7 7 7 10 12 10 7 8 6 5 6 5 5 6 6 7 5 6 6 4 6 9 8 7 6 5 7 8 6 7 8 6 5 4 4 3 1 5 5 3 3 7 8 5 2 5 5 6 11 14 13 16 20 22 23 23 23 24 23
7 6 5 3 2 3 3 3 6 7 6 8 6 4 6 4 1 3 5 2 2 2 1 2 4 4 5 4 3 6 5 6 9 9 7 8 7 5 5 5 5 6 5 6 8 7 8 9 8 8 11 11 10 7 6 7 9 9 8 8 8 6 6 7 6 5 6 4 1 1 5 7 5 1 5 7 6 9 13 15 19 22 23 24 23 23 23 23
7 7 5 3 3 3 4 5 7 7 7 7 5 7 6 1 4 4 2 1 1 3 1 1 2 3 5 5 5 5 2 3 6 6 4 6 6 5 3 1 2 5 3 5 7 6 7 9 11 11 9 12 13 8 7 7 9 11 9 9 9 7 7 8 8 7 7 5 4 2 2 5 4 2 6 8 7 8 12 17 20 23 24 24 24 24 23 23
8 7 4 3 4 4 6 7 8 8 6 5 6 7 4 2 5 1 1 4 4 2 1 1 3 5 4 4 5 5 3 4 5 5 5 6 5 5 5 3 4 6 2 3 3 4 6 5 11 13 8 13 15 11 8 8 9 11 9 9 10 8 7 8 7 7 6 6 6 6 3 4 4 4 6 5 6 8 11 14 17 20 23 23 23 23 23 23
7 6 4 3 5 6 7 8 8 9 6 5 7 4 1 3 3 1 3 4 2 2 3 3 5 7 5 3 5 3 3 2 5 5 5 6 4 3 4 5 5 5 3 3 2 3 5 2 7 11 7 11 17 14 10 9 8 9 9 9 10 8 7 6 5 5 5 6 5 6 4 2 3 5 6 6 6 9 11 13 15 19 22 22 20 21 22 22
6 4 3 4 5 7 7 7 8 9 6 7 6 2 3 3 4 3 4 3 3 1 4 6 5 5 6 5 5 5 2 0 6 6 3 4 3 3 2 3 2 4 5 4 1 3 5 1 8 10 6 11 17 16 13 10 7 7 9 11 8 7 8 6 6 5 5 7 5 5 5 3 4 6 7 8 8 9 11 13 15 20 23 23 21 21 21 21
5 3 1 2 5 6 6 7 8 6 5 8 2 4 2 3 5 4 4 4 3 2 4 5 2 2 4 6 5 6 6 4 6 6 4 5 3 3 2 3 2 3 4 5 3 2 3 1 8 9 10 11 12 14 16 15 10 6 8 10 7 5 7 5 5 6 6 7 6 7 7 7 6 5 6 10 10 10 12 13 15 20 24 25 25 25 25 24
6 5 2 2 4 5 6 6 6 3 5 4 4 4 1 3 5 5 4 4 2 4 6 1 1 2 3 5 5 6 7 6 7 6 5 4 2 3 0 2 3 2 4 6 5 2 4 4 7 7 8 10 8 9 12 15 14 8 6 9 8 7 7 7 6 7 8 8 7 7 9 9 8 5 7 11 11 11 13 14 15 18 22 24 26 27 27 26
6 7 4 1 3 5 6 5 2 3 6 2 5 3 1 4 5 6 5 3 3 3 3 1 1 2 2 2 5 5 5 4 6 6 4 2 2 3 2 1 2 0 1 6 5 2 3 5 4 6 5 8 9 8 8 11 13 8 7 8 8 6 7 8 8 7 7 8 7 8 9 8 6 3 6 10 11 11 13 14 14 17 21 22 22 24 25 25
7 7 4 1 3 5 5 3 1 4 2 2 3 3 2 3 5 7 5 3 3 3 2 2 1 2 2 2 3 4 2 2 4 4 3 2 3 4 3 3 2 2 2 5 5 2 3 4 3 6 7 7 8 10 9 8 12 11 7 8 9 7 7 7 8 9 8 7 7 7 8 5 1 2 3 7 8 9 10 10 11 15 18 18 18 20 22 23
7 6 4 2 2 4 3 2 1 1 2 3 3 4 3 3 4 5 6 4 4 5 5 4 3 2 3 2 3 3 2 3 4 2 3 3 1 2 4 5 5 2 2 5 4 3 3 3 5 4 7 8 7 7 6 4 7 12 10 9 9 8 8 7 8 10 8 8 6 6 7 2 3 2 2 6 6 6 8 8 10 13 16 16 16 18 20 21
7 3 4 2 1 3 1 2 2 1 1 3 3 4 3 3 4 4 5 4 3 4 4 4 5 4 3 3 3 3 3 3 2 2 3 3 3 5 6 6 5 4 4 2 2 0 2 3 5 5 5 2 4 4 2 5 5 9 9 10 10 9 10 9 9 8 8 9 8 7 7 1 4 1 2 5 5 6 6 7 8 11 13 14 15 16 18 19
5 3 4 1 2 2 4 2 4 2 2 5 4 4 3 3 4 4 5 5 4 3 3 4 5 4 4 3 2 3 2 2 2 2 3 5 6 7 7 7 4 4 5 2 3 2 2 3 5 5 4 1 4 4 3 2 6 9 9 10 8 9 11 9 9 8 8 10 9 7 8 3 5 1 2 5 6 7 7 8 10 10 9 10 12 14 16 18
2 5 3 1 3 3 5 2 4 3 5 5 4 5 5 6 7 6 6 7 6 4 3 5 5 4 4 2 2 3 1 0 2 3 3 4 5 5 6 7 5 3 2 3 2 0 2 3 4 5 6 5 6 7 6 7 9 8 7 6 5 9 10 8 7 6 6 10 11 9 9 3 5 3 3 5 7 8 9 10 11 11 10 10 11 11 13 16
4 4 3 3 3 0 1 1 1 3 5 5 4 5 4 4 6 6 6 8 8 6 4 4 4 3 3 2 3 4 2 0 2 2 2 4 5 5 6 7 6 4 4 5 5 3 3 2 3 6 8 7 5 5 4 6 7 5 3 2 4 9 11 9 7 6 7 9 10 10 8 2 6 6 6 7 8 8 10 11 11 12 12 12 12 12 13 15
4 4 4 4 3 2 3 3 1 3 5 4 4 3 1 4 5 4 5 5 8 8 5 4 2 1 1 1 2 4 3 2 2 3 3 3 4 5 6 6 6 6 4 3 4 4 3 1 1 4 5 2 1 3 3 0 4 5 4 3 4 6 9 9 9 9 8 7 8 9 8 3 6 9 9 9 10 9 10 11 10 11 12 11 11 13 14 14
4 2 1 3 3 3 5 5 3 3 3 2 1 1 0 2 4 3 4 4 6 6 4 5 4 1 1 1 1 3 3 3 4 4 3 3 3 4 3 3 5 6 2 2 3 4 3 3 0 2 1 3 4 5 5 2 2 3 3 3 3 4 7 10 10 7 5 8 8 5 6 8 7 9 11 11 10 10 10 10 9 10 12 11 11 12 13 14
2 2 1 1 2 2 3 4 3 4 4 2 0 1 2 2 2 2 4 3 4 4 2 3 5 4 4 2 0 2 3 3 5 4 3 2 1 2 3 2 5 5 3 1 1 3 3 3 1 1 3 5 4 4 3 2 2 2 2 2 2 4 5 8 9 3 3 6 5 1 5 10 7 8 11 10 10 10 10 10 10 10 11 12 12 12 12 13
1 3 3 2 1 2 3 4 4 4 4 3 2 2 2 2 3 3 3 1 2 4 3 2 5 6 5 3 1 2 2 1 4 4 2 2 1 1 1 2 3 4 3 1 2 3 3 1 1 3 2 4 4 2 2 2 2 2 2 3 1 3 2 3 4 0 1 2 3 2 6 6 3 4 9 9 9 10 11 11 11 11 11 11 12 12 12 12
2 2 3 4 3 4 5 5 5 5 4 2 2 3 2 2 4 4 4 4 2 3 2 2 5 6 5 5 4 4 5 5 5 5 3 2 1 2 2 2 2 3 3 2 2 2 2 1 1 4 5 3 2 1 2 3 2 2 2 4 2 2 1 0 0 1 1 1 3 2 5 3 2 5 9 9 9 10 12 12 12 12 12 12 12 12 13 12
3 4 5 4 3 3 4 5 4 4 3 3 2 4 3 3 5 5 5 6 5 4 3 2 4 3 3 5 6 6 7 5 5 5 4 4 3 3 3 3 4 3 2 3 3 2 2 2 3 5 7 6 2 1 1 3 4 3 3 7 6 2 1 3 3 4 4 2 2 2 3 1 3 6 8 8 8 10 11 12 12 12 12 13 12 12 12 12
3 5 4 2 1 2 3 5 4 3 1 3 4 4 4 5 6 3 3 4 4 5 5 3 2 1 1 4 6 6 5 4 4 4 3 3 3 3 2 2 4 4 3 3 2 2 3 3 3 4 6 7 6 4 3 4 6 4 3 8 9 5 4 3 3 5 5 4 3 2 1 3 1 4 5 6 8 9 10 11 11 12 13 13 12 12 12 12
Wind_Direction
2 358 356 357 352 349 346 343 340 335 330 325 321 318 311 297 286 277 274 273 275 283 288 295 300 300 303 304 302 296 291 286 279 272 264 264 249 230 220 203 201 196 179 169 176 180 171 172 178 174 175 185 201 202 186 214 243 244 260 256 232 110 106 133 133 121 120 137 146 150 155 145 140 139 133 134 128 127 126 117 111 105 114 125 129 135 140 143
356 348 343 342 340 341 339 339 337 333 332 327 322 318 313 306 297 284 278 277 276 277 281 289 294 297 305 307 310 306 300 296 289 283 268 243 235 223 210 201 197 193 179 174 180 177 172 175 176 175 182 189 188 185 171 206 235 229 88 290 350 67 109 153 114 116 130 139 142 147 155 146 139 139 144 143 133 136 134 126 121 115 120 125 130 136 141 144
355 348 333 322 322 323 325 330 329 329 329 327 325 321 315 309 303 295 283 278 278 279 280 285 287 295 304 309 315 314 314 307 298 290 267 235 229 220 208 201 192 190 184 178 178 178 179 177 176 178 191 201 185 186 180 203 237 208 110 312 13 67 141 131 115 126 135 138 140 145 149 143 138 142 152 148 143 151 147 138 134 133 137 136 136 140 142 146
355 352 340 316 305 305 310 317 320 323 325 325 323 319 316 311 306 302 293 280 275 276 279 283 288 295 302 312 316 321 322 302 276 233 256 234 218 220 211 199 189 184 181 179 176 180 185 178 180 185 204 209 177 213 211 181 230 209 118 154 50 35 75 117 121 127 136 142 142 143 146 142 141 143 149 148 147 154 152 147 145 145 146 144 142 143 145 147
355 354 349 326 303 299 300 307 316 320 323 325 320 316 313 311 309 305 300 288 276 271 276 281 289 298 304 313 316 322 309 271 130 156 259 219 202 215 211 195 186 179 176 178 176 181 184 179 184 192 215 210 176 213 198 163 235 219 107 74 77 58 81 125 125 130 141 143 140 145 146 139 140 141 149 153 143 143 146 146 146 147 148 147 146 145 148 151
354 353 351 338 314 299 298 306 318 321 324 324 320 314 308 309 312 310 307 295 281 274 275 280 291 301 307 311 316 311 279 282 34 321 251 197 195 200 201 189 182 179 178 179 177 182 183 183 191 195 211 212 191 209 119 153 242 268 87 58 52 74 112 126 124 136 143 144 146 149 140 139 144 142 151 147 91 128 139 139 142 146 147 147 146 146 151 155
354 352 350 345 330 312 303 308 319 324 324 323 321 315 308 306 309 314 313 299 287 279 279 285 291 302 309 311 322 303 264 295 343 307 234 197 191 186 187 181 178 178 178 180 181 184 181 187 198 198 204 201 183 196 18 157 216 287 85 82 68 86 111 124 130 143 148 148 144 140 139 145 146 138 146 127 102 129 135 135 141 145 146 146 148 149 152 156
355 352 350 348 342 330 314 316 324 325 325 327 324 318 312 308 308 315 317 308 293 278 281 290 289 303 308 318 325 290 245 262 302 285 12 186 183 182 177 174 175 172 175 180 182 183 181 190 201 203 202 172 145 196 273 231 198 246 88 99 114 106 111 127 135 145 148 143 138 139 145 147 141 133 132 126 124 135 136 137 143 145 147 148 150 150 152 156
356 353 350 348 349 344 334 332 331 329 329 331 330 323 317 311 308 312 317 314 294 277 279 285 295 301 304 336 308 271 214 243 255 200 101 148 176 185 178 176 172 167 173 179 180 183 182 193 199 208 215 128 253 242 287 268 197 169 103 107 130 122 119 132 137 145 144 142 145 144 143 137 136 130 119 131 138 138 138 139 146 148 148 150 152 153 154 156
0 356 351 351 353 353 348 341 336 334 331 334 337 330 320 314 310 309 315 315 291 276 271 278 306 304 317 346 277 249 142 237 195 154 124 128 168 181 178 182 172 166 174 176 181 186 187 199 193 204 283 163 221 268 287 289 117 131 129 112 125 124 121 135 139 144 143 147 156 149 137 135 145 154 135 140 145 143 141 141 149 152 150 153 155 155 157 158
5 359 352 352 353 352 350 344 341 335 332 333 332 328 321 314 308 305 309 308 291 280 273 289 308 297 328 289 263 254 102 106 143 146 129 124 159 173 177 184 171 169 175 176 184 188 192 203 188 200 259 174 209 243 85 333 109 136 136 116 121 123 122 143 147 145 147 151 161 150 131 139 163 186 140 143 151 149 145 143 152 156 153 156 158 157 159 160
6 2 354 350 351 353 351 348 341 334 332 328 323 320 316 309 304 304 307 292 277 279 272 295 289 299 310 255 261 255 131 91 129 143 126 127 156 165 173 176 169 175 177 177 184 185 190 189 192 210 243 200 222 192 90 79 140 150 156 131 128 132 130 144 145 137 141 154 162 150 134 150 163 134 134 146 152 152 148 146 154 159 157 158 159 158 160 161
4 0 352 349 352 351 349 347 340 337 337 331 323 314 311 308 294 287 308 275 272 284 276 296 294 316 294 256 251 212 165 109 128 137 126 131 150 156 164 166 165 174 178 182 183 180 186 180 197 217 244 277 268 84 88 115 167 171 186 182 146 154 150 138 131 116 117 143 163 160 152 156 139 129 143 151 153 155 153 151 156 161 161 161 162 162 162 163
1 357 350 349 351 348 348 346 342 343 343 340 333 321 320 310 287 291 46 322 307 308 301 300 307 323 280 255 225 173 164 132 131 137 130 134 148 152 156 164 166 167 170 179 179 180 188 184 205 221 240 262 300 305 208 174 204 194 184 197 165 169 154 125 125 139 129 146 178 229 178 150 137 144 152 154 158 161 156 157 161 163 164 164 166 166 164 165
359 355 348 348 348 348 349 347 345 346 347 350 354 354 350 327 335 64 64 25 7 337 330 317 337 316 262 236 195 159 149 136 137 141 137 142 157 158 153 160 166 166 169 171 175 182 187 186 207 217 222 240 257 249 207 174 206 201 185 206 176 159 148 119 121 164 144 148 184 257 172 147 147 154 157 161 166 167 162 161 165 165 166 167 168 169 167 167
358 351 347 349 347 351 352 349 348 348 353 2 9 14 22 27 40 61 54 41 21 1 7 352 351 289 278 194 142 138 135 137 152 148 144 150 163 166 157 151 152 158 163 167 176 178 180 191 205 224 225 219 231 227 193 182 200 192 206 231 170 141 140 129 147 182 160 145 163 261 170 141 154 161 163 169 172 173 167 163 166 168 167 168 170 170 169 168
358 351 348 347 347 354 353 353 353 355 5 20 25 31 32 32 44 49 42 29 10 355 324 295 284 277 283 150 141 136 137 145 154 151 148 153 167 174 161 150 151 154 149 154 170 172 178 192 194 215 233 230 230 219 209 204 199 188 199 234 151 132 143 150 161 179 173 155 156 228 203 136 154 163 166 174 177 177 172 165 166 167 167 170 171 171 171 170
357 349 346 348 351 353 353 359 1 9 23 29 30 29 28 28 19 26 16 352 351 325 284 232 231 256 194 166 148 119 136 143 143 148 149 148 156 167 163 154 153 153 150 151 164 174 181 192 196 198 213 225 226 215 215 205 215 212 203 223 157 140 158 160 166 179 178 169 160 179 179 138 151 162 169 176 179 181 178 169 166 168 169 171 173 172 173 173
355 350 346 345 350 353 359 8 12 28 38 35 29 20 21 22 348 351 356 333 313 288 300 172 210 283 103 144 128 110 139 137 133 142 147 147 149 157 164 159 156 160 162 162 168 179 185 189 201 204 200 205 207 217 226 7 256 220 196 286 165 146 164 131 130 163 165 174 173 172 164 144 153 163 171 176 180 184 181 173 169 169 170 173 175 173 174 175
352 351 340 340 353 356 4 16 24 41 43 37 29 13 358 2 308 145 356 307 270 281 320 264 244 286 96 130 122 124 140 136 137 148 146 144 148 150 158 162 165 176 180 174 165 176 189 193 200 205 202 200 201 222 254 339 281 182 128 282 234 175 167 121 128 151 148 162 170 170 171 153 159 168 173 176 180 186 184 178 175 172 173 176 177 175 175 175
347 346 334 340 354 352 2 18 31 40 35 38 31 9 353 358 345 7 344 285 236 280 292 265 256 261 209 146 154 146 149 148 148 156 149 142 151 150 156 168 173 189 193 174 151 163 193 206 203 201 199 199 194 209 234 260 257 193 175 214 228 220 140 106 134 157 159 172 156 165 181 174 172 169 171 176 182 191 187 181 178 175 176 179 178 176 174 172
339 345 328 332 350 354 350 2 13 14 12 33 29 10 356 354 340 346 333 292 229 301 286 248 249 249 209 193 170 152 159 153 143 156 155 152 172 174 166 181 188 183 181 172 156 164 197 216 202 190 162 118 174 190 220 245 236 210 192 200 208 178 108 101 134 157 164 163 146 173 187 183 171 161 173 182 186 194 191 184 181 178 176 180 180 176 174 174
333 333 313 325 346 346 298 306 322 332 324 337 2 349 328 329 332 343 321 285 313 27 319 233 243 230 197 197 161 163 174 154 145 159 164 165 187 186 170 189 197 175 171 177 181 180 194 214 192 164 151 183 187 195 213 232 225 217 202 211 203 162 175 163 150 164 164 146 172 188 194 184 162 158 184 192 192 195 193 189 186 182 179 180 181 176 175 176
326 266 295 319 329 329 283 266 275 287 309 319 315 303 312 317 327 340 318 277 96 79 55 200 247 214 185 165 160 181 188 155 151 159 169 177 173 164 177 194 189 174 181 189 194 194 191 195 166 154 178 199 195 194 209 222 211 207 213 225 201 178 223 290 136 161 173 178 183 175 194 201 172 177 186 187 194 195 192 192 189 187 185 181 180 180 179 178
297 221 258 306 320 325 287 266 257 258 297 312 306 301 312 317 321 328 304 254 126 104 116 142 185 172 148 157 162 181 179 156 153 155 169 186 172 161 175 188 190 183 185 189 196 202 180 110 159 176 186 203 210 202 209 227 217 199 207 232 276 181 205 139 139 156 189 204 184 174 200 212 188 196 185 170 188 195 193 194 191 188 187 185 181 182 184 183
257 206 216 283 308 308 292 266 245 269 294 291 285 296 310 317 315 313 288 221 118 96 167 152 170 140 134 160 154 173 187 157 139 150 166 185 183 177 163 173 210 197 174 182 200 211 150 135 186 197 191 199 219 217 201 220 244 207 171 179 197 182 181 164 152 162 204 199 182 196 207 194 206 199 182 176 187 194 196 196 193 188 186 188 184 182 186 186
233 199 204 247 287 291 297 288 285 302 300 262 278 300 311 313 312 306 273 179 104 39 196 123 104 123 125 152 159 188 178 136 140 159 169 177 174 198 192 176 200 170 160 183 201 188 143 154 183 197 203 203 214 220 189 206 244 161 119 167 192 178 177 184 173 181 228 114 171 198 193 214 241 186 172 180 184 191 199 198 195 190 187 188 186 183 185 186
218 199 206 226 277 295 300 299 305 307 289 273 293 305 304 304 316 298 264 114 82 324 173 92 84 115 123 150 169 208 123 135 158 162 168 181 171 207 216 183 184 159 163 198 186 149 170 190 190 189 208 211 212 219 183 202 235 41 73 194 189 165 177 202 199 197 258 272 199 190 190 223 256 153 160 172 180 192 197 195 193 191 190 189 187 187 186 186
204 198 206 221 260 294 302 301 301 285 286 300 307 310 301 299 302 268 250 80 74 248 111 96 125 133 150 155 161 174 144 158 174 140 163 188 180 225 252 174 190 160 163 215 224 130 168 208 208 202 214 213 212 220 192 211 235 21 142 212 178 166 180 208 223 224 247 256 244 189 188 225 242 146 163 173 186 196 192 191 191 190 192 189 188 190 187 186
194 193 202 224 252 288 302 301 296 298 306 314 318 320 302 277 261 250 133 78 63 148 124 209 144 145 173 166 147 152 152 152 124 138 163 182 174 195 51 128 196 176 164 217 242 147 121 164 220 219 229 234 222 216 205 223 235 175 192 200 180 180 186 203 228 309 260 246 252 203 187 219 237 165 176 185 194 194 186 189 189 188 191 190 188 190 189 187
189 189 204 228 257 295 309 301 301 315 318 314 321 315 264 233 247 278 82 72 295 128 161 204 135 168 198 187 145 141 142 134 142 155 166 172 175 173 148 154 191 200 179 200 226 210 175 185 199 211 225 239 234 211 198 219 217 201 204 199 191 188 198 220 197 227 255 232 245 216 187 216 246 194 169 168 182 190 185 186 188 187 189 190 190 191 190 189
187 192 208 239 274 301 311 299 304 317 315 309 308 258 233 219 227 46 79 165 241 102 136 164 147 189 207 207 153 142 140 128 152 174 169 176 185 166 182 194 177 197 208 193 198 201 203 208 202 200 207 215 223 206 184 202 203 203 208 198 201 205 203 221 212 210 237 220 208 257 201 217 250 208 148 151 163 187 186 186 189 188 186 188 191 191 190 189
188 198 214 251 288 302 304 304 314 318 313 308 277 226 240 266 64 44 66 150 43 50 36 128 156 183 193 195 160 154 175 118 156 193 180 193 198 164 181 282 210 235 241 185 189 190 197 202 199 203 201 200 216 213 181 189 198 201 205 198 203 209 205 218 218 215 228 217 196 193 194 219 233 140 133 157 167 171 182 188 190 191 188 187 189 191 190 189
192 206 221 269 290 300 306 314 320 318 317 297 243 227 248 48 73 55 37 60 53 66 114 173 163 167 195 186 140 168 208 128 152 192 175 193 206 176 171 164 215 263 282 187 210 212 207 196 190 198 193 186 204 224 204 186 197 204 206 210 215 218 215 222 224 218 229 220 176 153 176 226 211 132 113 143 158 155 168 179 186 192 190 187 188 189 189 189
195 207 230 277 294 303 312 322 324 324 325 259 238 245 317 64 70 40 37 41 24 98 131 184 188 170 162 124 126 188 270 118 163 189 182 194 196 173 169 153 185 237 257 217 173 200 242 277 163 180 182 179 194 217 217 192 195 205 207 217 223 223 225 239 246 229 238 244 185 168 218 241 136 142 134 135 158 167 168 168 176 186 187 183 182 185 187 187
187 203 239 287 308 314 320 328 332 337 320 252 245 39 60 48 28 10 20 0 326 31 152 176 194 182 154 142 152 170 254 192 176 179 161 170 140 95 110 100 146 226 246 243 174 181 239 188 140 165 187 190 198 206 206 204 201 192 206 219 221 235 243 242 236 220 235 256 221 188 229 219 157 171 161 152 163 172 173 172 172 176 178 175 173 181 186 186
167 181 220 307 316 331 339 336 339 345 290 263 288 62 57 37 24 4 0 337 329 300 225 184 179 228 158 153 155 159 173 173 185 189 157 162 132 79 133 116 94 256 269 278 265 209 263 204 143 174 197 191 204 207 200 213 226 200 205 210 195 227 249 234 226 220 223 245 230 198 216 224 211 191 167 172 173 169 176 179 172 171 176 178 181 189 193 192
162 179 178 332 335 354 352 346 354 330 262 260 95 87 358 42 37 5 354 327 304 249 249 219 76 276 194 161 139 149 178 176 186 189 158 171 147 71 231 141 125 260 283 268 249 169 270 255 149 171 197 170 183 212 199 207 225 243 246 215 192 209 219 203 218 227 218 230 232 208 209 227 229 193 172 187 180 170 175 177 176 175 179 183 186 190 195 193
168 186 178 23 1 6 3 18 43 243 253 239 111 108 15 49 48 23 11 326 302 266 261 37 79 238 226 171 128 144 201 197 180 179 161 179 134 93 332 15 127 342 278 240 239 153 243 258 159 153 172 158 171 206 203 192 207 241 268 224 201 219 224 208 219 231 228 232 231 217 213 222 230 176 168 182 173 167 171 175 180 180 179 184 186 187 189 186
184 198 159 82 355 20 38 70 176 242 246 68 80 87 53 37 49 44 31 355 338 343 4 58 154 170 140 147 131 144 213 194 171 177 165 163 127 108 65 16 348 17 109 208 233 213 215 255 217 147 148 179 190 198 210 199 191 203 228 215 201 217 230 221 224 229 237 240 231 229 226 208 113 42 123 150 153 158 165 171 180 180 178 181 181 180 179 179
195 211 134 123 347 37 66 140 187 260 114 96 85 87 63 350 13 48 44 32 28 25 34 50 60 94 119 143 137 145 169 158 164 166 154 167 170 98 67 12 321 308 191 204 207 217 222 243 249 185 170 200 188 181 228 264 204 197 207 215 210 213 220 221 221 220 230 242 235 240 243 191 74 23 100 125 134 144 155 168 175 175 177 177 176 178 179 180
201 197 119 150 21 55 243 214 114 130 111 100 82 67 43 343 351 30 35 28 40 48 44 46 47 52 65 79 96 140 154 134 151 157 131 108 55 42 35 3 315 272 261 241 121 88 283 262 255 241 215 205 100 127 267 312 249 215 213 220 216 211 217 224 223 213 217 233 235 247 253 166 87 89 137 123 127 129 145 165 167 167 172 174 175 177 179 181
205 114 106 161 102 122 240 202 134 150 84 95 95 69 54 23 22 38 32 19 20 37 51 50 44 46 46 47 87 129 114 71 77 93 103 97 71 40 18 6 328 263 268 292 96 108 252 247 252 244 228 157 95 137 184 221 228 226 220 222 227 222 219 227 240 234 224 224 221 236 244 190 104 129 154 130 132 139 156 167 169 170 165 163 172 175 175 179
143 97 98 116 113 178 244 196 145 140 107 121 126 101 88 54 37 35 37 35 27 13 41 56 45 46 50 40 80 90 61 73 88 72 86 101 77 45 23 14 349 295 318 354 9 177 226 237 246 235 213 188 168 169 175 188 208 221 218 220 255 254 239 239 254 256 240 230 221 229 239 187 118 150 164 146 150 158 168 170 169 171 166 163 173 177 178 184
145 127 119 95 87 139 294 42 131 138 128 139 120 102 113 84 52 29 30 44 39 22 39 61 33 32 60 78 101 87 40 21 99 98 111 105 89 63 36 23 6 358 20 4 331 289 255 253 257 244 228 210 193 187 180 184 193 198 196 199 241 247 242 242 243 235 234 232 225 232 244 148 130 169 176 165 171 170 169 171 169 169 169 169 172 174 180 189
196 175 152 139 113 95 95 95 196 157 141 152 124 94 93 103 88 44 24 41 47 40 47 60 17 337 71 101 127 100 71 73 112 145 141 115 102 70 35 25 27 22 22 355 309 281 243 204 300 274 257 257 45 59 45 17 195 182 170 175 198 223 235 241 240 238 239 237 233 234 239 205 165 179 183 176 180 181 175 174 174 169 167 166 167 172 179 188
226 194 144 153 144 141 136 144 174 152 138 175 134 93 71 114 113 73 37 36 44 39 39 51 35 354 54 68 154 102 79 99 113 121 120 110 121 104 67 42 41 28 358 245 271 277 237 191 279 335 50 54 51 69 72 76 172 161 157 166 174 190 218 230 234 249 259 245 243 227 217 232 215 181 181 183 181 187 182 174 173 168 163 164 170 176 182 186
214 122 73 183 167 159 141 137 156 148 137 145 114 148 170 137 111 74 58 60 51 18 352 62 56 46 52 23 264 111 101 122 114 102 99 106 151 178 153 91 48 27 333 247 309 302 258 203 274 330 91 76 63 91 103 109 114 111 121 125 171 190 208 228 233 268 299 251 260 244 210 242 241 176 172 177 176 182 180 169 169 173 171 170 173 180 185 185
126 114 127 160 143 76 92 115 152 152 130 122 114 132 154 116 98 71 30 13 74 32 358 56 64 53 58 42 25 107 80 77 107 96 55 55 36 286 193 136 53 23 356 16 57 345 281 196 330 282 171 95 71 103 166 191 150 138 107 72 109 195 194 225 220 164 325 264 324 308 221 235 263 153 154 159 167 173 172 171 175 180 180 175 172 178 181 177
124 125 141 154 131 108 114 140 167 159 134 148 138 115 119 94 99 95 36 351 17 66 43 79 76 55 53 62 78 94 62 31 71 86 28 352 48 12 16 50 17 7 11 21 34 350 270 210 320 271 219 163 79 62 213 227 216 169 106 52 21 207 169 39 101 29 300 305 10 302 216 189 75 111 131 144 162 166 168 175 178 177 176 172 170 175 173 167
126 140 152 167 142 126 143 155 173 181 163 168 149 133 142 108 95 106 79 32 20 45 50 63 79 57 58 77 76 79 72 42 47 62 23 3 25 10 10 25 352 337 33 33 7 345 301 231 214 247 235 201 182 283 238 243 250 201 106 31 3 333 16 26 40 17 345 332 331 263 221 146 85 110 127 148 170 172 173 177 176 172 172 171 170 169 160 153
98 132 152 205 199 167 176 165 175 207 161 103 113 134 141 120 113 117 92 72 48 42 37 16 350 298 154 96 68 47 41 16 16 31 14 5 10 348 346 7 344 335 5 10 359 12 340 276 223 251 251 214 208 261 269 246 246 217 90 20 4 7 4 11 68 41 6 335 304 278 354 20 90 138 146 169 181 181 178 175 174 173 173 172 172 168 158 152
Height
1519 1519 1518 1517 1516 1515 1515 1514 1513 1513 1512 1512 1511 1511 1510 1510 1510 1510 1509 1509 1509 1509 1509 1508 1508 1508 1508 1508 1508 1508 1508 1508 1508 1507 1507 1508 1509 1509 1510 1511 1512 1513 1515 1517 1519 1520 1522 1523 1524 1525 1526 1525 1525 1524 1523 1524 1522 1521 1522 1521 1518 1517 1518 1513 1512 1515 1516 1523 1526 1528 1530 1531 1534 1537 1539 1541 1542 1543 1545 1546 1547 1549 1550 1552 1555 1558 1561 1563
1519 1518 1517 1517 1516 1515 1515 1514 1513 1513 1512 1512 1511 1511 1510 1510 1509 1509 1509 1509 1509 1508 1508 1508 1508 1508 1508 1508 1507 1507 1507 1507 1507 1506 1506 1507 1507 1508 1509 1510 1512 1513 1515 1517 1518 1520 1521 1522 1523 1524 1525 1524 1523 1523 1522 1522 1520 1519 1524 1524 1518 1519 1519 1512 1512 1514 1516 1522 1525 1528 1530 1531 1534 1536 1539 1540 1542 1544 1545 1546 1548 1550 1552 1554 1556 1559 1562 1564
1519 1518 1517 1516 1516 1515 1515 1514 1513 1512 1512 1511 1511 1510 1510 1509 1509 1508 1508 1508 1508 1508 1508 1508 1508 1507 1507 1507 1507 1507 1507 1507 1506 1505 1505 1505 1506 1507 1508 1509 1511 1513 1515 1517 1519 1521 1522 1522 1523 1524 1524 1522 1521 1522 1521 1521 1518 1517 1524 1528 1520 1515 1514 1511 1514 1516 1517 1522 1525 1529 1531 1532 1535 1536 1538 1539 1541 1542 1542 1544 1546 1550 1553 1555 1557 1560 1563 1565
1519 1518 1517 1516 1515 1515 1514 1514 1513 1512 1512 1511 1510 1510 1509 1509 1508 1508 1508 1507 1507 1507 1507 1508 1507 1507 1507 1507 1507 1507 1507 1506 1505 1504 1504 1504 1505 1506 1507 1509 1511 1513 1516 1518 1520 1522 1522 1523 1523 1523 1523 1520 1520 1521 1519 1519 1518 1518 1524 1527 1519 1515 1516 1516 1517 1518 1520 1523 1526 1529 1532 1534 1536 1537 1538 1538 1541 1542 1542 1543 1545 1548 1552 1554 1557 1560 1563 1565
1518 1517 1517 1516 1515 1514 1514 1514 1513 1512 1512 1511 1510 1509 1508 1508 1508 1508 1507 1507 1506 1506 1507 1507 1507 1507 1507 1507 1507 1507 1507 1505 1503 1503 1503 1503 1503 1504 1506 1508 1511 1513 1516 1519 1520 1522 1522 1523 1523 1523 1522 1518 1519 1520 1518 1518 1518 1517 1520 1520 1516 1518 1521 1519 1519 1520 1522 1524 1527 1529 1531 1534 1536 1538 1539 1539 1541 1542 1542 1544 1546 1548 1552 1554 1556 1559 1563 1566
1518 1517 1516 1515 1514 1514 1513 1513 1513 1512 1512 1511 1510 1509 1508 1507 1507 1507 1507 1506 1506 1506 1506 1506 1507 1507 1507 1507 1506 1507 1506 1504 1502 1503 1503 1502 1503 1504 1506 1508 1510 1512 1515 1518 1520 1521 1522 1523 1523 1522 1520 1516 1517 1517 1516 1518 1518 1518 1518 1517 1517 1519 1521 1520 1520 1522 1523 1525 1528 1529 1531 1534 1536 1538 1540 1541 1541 1542 1543 1545 1547 1550 1553 1555 1557 1560 1563 1565
1517 1516 1515 1514 1514 1513 1513 1513 1512 1512 1511 1511 1510 1509 1508 1507 1506 1506 1506 1506 1506 1506 1506 1506 1506 1506 1506 1506 1506 1506 1506 1504 1503 1503 1502 1502 1503 1504 1506 1508 1510 1512 1515 1518 1520 1521 1522 1522 1521 1519 1518 1517 1517 1516 1517 1517 1518 1518 1518 1518 1520 1520 1520 1520 1521 1523 1525 1527 1528 1530 1532 1534 1535 1538 1541 1542 1542 1543 1545 1547 1549 1552 1554 1557 1559 1561 1564 1566
1517 1516 1515 1514 1513 1513 1513 1512 1512 1511 1511 1510 1510 1509 1508 1507 1506 1505 1505 1505 1505 1505 1505 1506 1505 1506 1506 1506 1506 1506 1505 1504 1503 1503 1502 1503 1503 1504 1507 1508 1510 1512 1515 1518 1519 1520 1522 1522 1521 1519 1517 1517 1517 1516 1517 1517 1517 1517 1517 1519 1520 1520 1521 1521 1523 1524 1526 1528 1530 1532 1533 1534 1536 1538 1541 1543 1544 1545 1546 1549 1550 1552 1555 1557 1560 1562 1564 1567
1516 1515 1514 1514 1513 1513 1512 1512 1512 1511 1510 1510 1509 1508 1507 1506 1506 1505 1505 1505 1505 1505 1505 1505 1505 1506 1505 1505 1506 1504 1503 1503 1503 1503 1503 1503 1504 1505 1507 1508 1510 1512 1515 1518 1519 1521 1521 1521 1521 1519 1517 1518 1519 1517 1516 1518 1518 1516 1517 1519 1520 1521 1522 1522 1523 1524 1527 1529 1531 1532 1533 1535 1537 1539 1543 1544 1545 1546 1547 1550 1552 1553 1556 1558 1561 1563 1565 1568
1516 1515 1514 1513 1513 1512 1512 1512 1511 1510 1510 1509 1508 1508 1507 1506 1505 1505 1505 1504 1504 1504 1504 1505 1505 1505 1505 1506 1505 1502 1502 1503 1503 1503 1503 1503 1504 1506 1507 1509 1510 1513 1516 1518 1519 1520 1521 1521 1521 1521 1519 1519 1519 1517 1516 1518 1518 1517 1517 1519 1520 1521 1523 1523 1524 1526 1528 1530 1530 1531 1533 1536 1537 1538 1543 1545 1545 1546 1548 1550 1553 1554 1556 1559 1561 1564 1566 1568
1516 1515 1514 1513 1513 1512 1512 1511 1511 1510 1509 1508 1507 1507 1506 1505 1505 1504 1504 1504 1504 1504 1504 1505 1505 1505 1505 1506 1504 1501 1502 1504 1503 1504 1504 1504 1505 1507 1508 1510 1511 1514 1516 1517 1519 1520 1521 1521 1521 1522 1520 1518 1519 1517 1516 1517 1517 1517 1518 1519 1521 1522 1524 1524 1525 1527 1528 1530 1531 1531 1533 1536 1537 1538 1540 1544 1545 1546 1548 1550 1553 1555 1557 1560 1562 1564 1566 1568
1516 1515 1514 1513 1513 1512 1512 1511 1511 1510 1508 1507 1507 1506 1505 1505 1504 1504 1504 1504 1504 1504 1504 1505 1505 1505 1505 1505 1504 1502 1503 1504 1503 1504 1504 1505 1506 1508 1509 1511 1513 1515 1517 1518 1519 1520 1521 1521 1522 1522 1520 1518 1517 1516 1517 1517 1517 1518 1517 1520 1523 1522 1525 1526 1525 1527 1528 1530 1531 1531 1538 1541 1537 1539 1540 1543 1545 1546 1548 1550 1553 1556 1558 1560 1562 1564 1566 1568
1516 1515 1514 1514 1513 1512 1512 1511 1510 1509 1508 1507 1505 1505 1504 1504 1503 1503 1503 1503 1504 1504 1504 1504 1504 1505 1505 1504 1503 1503 1503 1503 1504 1504 1505 1506 1507 1508 1510 1511 1514 1516 1518 1519 1519 1520 1521 1521 1522 1522 1520 1519 1516 1517 1518 1517 1518 1518 1516 1517 1521 1524 1527 1528 1529 1530 1530 1532 1531 1531 1542 1545 1538 1540 1542 1543 1545 1546 1548 1550 1552 1555 1557 1560 1562 1564 1566 1568
1516 1515 1514 1514 1513 1512 1511 1511 1510 1508 1507 1506 1505 1504 1503 1503 1503 1503 1503 1503 1504 1504 1504 1504 1504 1505 1504 1503 1502 1503 1503 1504 1504 1505 1505 1507 1508 1509 1510 1512 1514 1516 1517 1519 1520 1520 1521 1521 1522 1522 1521 1519 1517 1518 1517 1517 1518 1516 1516 1516 1519 1529 1531 1528 1530 1532 1534 1536 1533 1533 1541 1545 1541 1541 1543 1543 1545 1546 1547 1550 1552 1554 1557 1559 1561 1563 1566 1567
1515 1514 1514 1513 1513 1512 1511 1510 1509 1508 1507 1506 1504 1504 1503 1503 1503 1503 1504 1504 1504 1504 1504 1504 1504 1505 1504 1502 1502 1503 1503 1504 1505 1505 1506 1508 1509 1510 1511 1513 1514 1516 1517 1518 1520 1520 1521 1522 1522 1521 1520 1519 1518 1518 1515 1516 1516 1512 1523 1523 1515 1527 1531 1528 1531 1531 1534 1537 1534 1535 1541 1546 1543 1540 1543 1544 1545 1546 1547 1549 1551 1553 1556 1559 1561 1562 1565 1567
1515 1514 1514 1513 1513 1512 1511 1510 1509 1508 1507 1506 1505 1504 1504 1503 1503 1504 1504 1504 1504 1504 1504 1504 1505 1505 1503 1501 1502 1503 1504 1505 1505 1506 1507 1508 1511 1511 1512 1513 1515 1516 1517 1518 1519 1520 1522 1522 1522 1520 1519 1518 1517 1515 1513 1517 1516 1512 1525 1524 1510 1519 1528 1529 1532 1531 1532 1535 1537 1539 1542 1546 1544 1541 1543 1544 1545 1546 1546 1548 1550 1553 1555 1557 1560 1562 1564 1566
1515 1514 1513 1513 1512 1512 1511 1510 1509 1508 1507 1506 1505 1504 1504 1504 1504 1504 1504 1504 1504 1504 1504 1504 1504 1505 1503 1501 1502 1503 1504 1505 1505 1506 1507 1508 1511 1511 1512 1514 1515 1517 1517 1519 1520 1521 1522 1521 1521 1521 1519 1516 1512 1511 1517 1523 1521 1514 1519 1519 1511 1517 1527 1532 1533 1531 1531 1533 1539 1542 1540 1541 1540 1539 1543 1544 1545 1545 1546 1547 1549 1552 1554 1557 1559 1561 1563 1565
1514 1513 1513 1512 1512 1512 1511 1510 1509 1508 1507 1506 1506 1505 1504 1504 1504 1504 1504 1504 1504 1504 1504 1503 1504 1504 1502 1501 1502 1503 1504 1504 1504 1506 1507 1508 1510 1511 1513 1514 1515 1517 1517 1519 1520 1520 1521 1519 1518 1520 1519 1517 1512 1512 1519 1522 1519 1515 1514 1513 1512 1516 1523 1530 1531 1528 1529 1534 1539 1543 1541 1538 1537 1538 1542 1543 1544 1545 1546 1547 1549 1551 1553 1556 1558 1560 1562 1564
1514 1513 1512 1512 1512 1511 1511 1510 1509 1508 1507 1506 1506 1505 1504 1504 1504 1504 1504 1504 1503 1502 1501 1502 1503 1501 1500 1501 1502 1503 1503 1504 1505 1506 1507 1507 1509 1512 1513 1515 1515 1516 1516 1516 1518 1518 1519 1518 1518 1520 1519 1516 1512 1509 1511 1512 1510 1510 1512 1509 1511 1520 1522 1524 1526 1522 1524 1534 1538 1540 1540 1538 1537 1538 1540 1542 1544 1545 1546 1546 1548 1550 1552 1555 1557 1558 1561 1563
1513 1512 1512 1512 1511 1511 1510 1510 1509 1508 1508 1507 1506 1505 1504 1503 1501 1502 1503 1503 1502 1501 1500 1501 1502 1500 1500 1501 1503 1503 1503 1504 1505 1507 1507 1508 1509 1511 1513 1515 1515 1515 1513 1512 1515 1516 1516 1518 1519 1516 1513 1509 1508 1506 1506 1509 1507 1509 1516 1514 1510 1518 1520 1519 1523 1522 1523 1532 1537 1538 1539 1538 1537 1537 1537 1541 1543 1543 1545 1546 1547 1549 1551 1553 1555 1557 1560 1562
1512 1512 1511 1511 1511 1511 1510 1510 1509 1509 1508 1507 1507 1506 1505 1504 1502 1502 1503 1501 1501 1501 1501 1501 1501 1500 1500 1501 1502 1503 1503 1504 1506 1507 1508 1508 1509 1510 1513 1514 1514 1514 1511 1509 1513 1515 1515 1517 1514 1509 1506 1505 1506 1507 1508 1509 1508 1509 1515 1517 1512 1512 1513 1514 1519 1521 1522 1530 1536 1537 1539 1538 1536 1536 1536 1539 1541 1541 1542 1544 1545 1547 1550 1552 1554 1557 1559 1561
1512 1511 1511 1511 1510 1510 1510 1509 1509 1509 1508 1508 1507 1506 1506 1506 1505 1504 1503 1500 1499 1500 1500 1500 1500 1500 1501 1501 1501 1502 1502 1502 1505 1508 1507 1509 1510 1508 1511 1512 1511 1510 1508 1508 1513 1517 1518 1515 1508 1504 1505 1508 1509 1509 1510 1510 1510 1509 1510 1514 1514 1512 1513 1516 1517 1517 1518 1528 1536 1537 1538 1537 1535 1536 1536 1537 1539 1540 1542 1542 1544 1546 1548 1551 1553 1556 1559 1561
1511 1510 1510 1510 1509 1510 1510 1509 1509 1508 1508 1508 1507 1507 1507 1506 1505 1504 1504 1500 1498 1499 1499 1499 1500 1500 1500 1501 1501 1501 1500 1500 1503 1507 1507 1508 1508 1507 1509 1509 1507 1508 1508 1509 1511 1516 1518 1511 1504 1505 1508 1511 1512 1511 1512 1512 1510 1509 1510 1514 1514 1513 1515 1518 1520 1519 1518 1527 1535 1534 1534 1532 1534 1538 1538 1538 1539 1540 1542 1543 1544 1546 1547 1550 1553 1555 1558 1560
1511 1510 1510 1509 1509 1510 1509 1509 1509 1508 1508 1507 1507 1507 1506 1505 1504 1503 1503 1499 1497 1498 1499 1499 1499 1500 1500 1500 1501 1501 1499 1499 1501 1505 1507 1507 1507 1507 1507 1505 1505 1508 1509 1507 1507 1510 1512 1506 1502 1507 1511 1511 1513 1513 1513 1514 1511 1509 1510 1512 1513 1513 1513 1514 1518 1520 1521 1525 1527 1532 1539 1534 1531 1540 1540 1538 1540 1539 1540 1542 1543 1546 1547 1550 1553 1555 1557 1559
1510 1510 1509 1509 1509 1509 1508 1509 1508 1507 1508 1507 1506 1506 1505 1505 1503 1503 1503 1498 1497 1498 1498 1499 1499 1499 1500 1499 1500 1500 1499 1500 1501 1503 1506 1506 1506 1506 1505 1504 1505 1507 1507 1506 1507 1507 1507 1507 1507 1510 1512 1512 1514 1514 1512 1513 1511 1510 1509 1509 1510 1511 1513 1515 1517 1523 1530 1531 1524 1530 1548 1542 1528 1533 1537 1536 1538 1538 1539 1540 1541 1544 1546 1549 1551 1554 1556 1558
1509 1509 1508 1509 1509 1508 1508 1508 1507 1508 1507 1506 1507 1505 1504 1504 1502 1503 1501 1495 1497 1499 1497 1498 1498 1498 1499 1499 1500 1501 1500 1500 1501 1504 1505 1506 1506 1505 1505 1505 1504 1504 1504 1504 1506 1505 1505 1509 1509 1511 1513 1514 1515 1514 1511 1511 1512 1512 1508 1506 1509 1510 1514 1517 1520 1530 1537 1533 1523 1523 1542 1551 1535 1527 1532 1535 1538 1539 1538 1539 1540 1542 1545 1547 1549 1552 1554 1556
1508 1508 1508 1508 1508 1508 1508 1507 1507 1507 1506 1506 1506 1504 1504 1503 1501 1503 1499 1497 1502 1500 1496 1497 1497 1498 1499 1499 1500 1500 1500 1500 1502 1505 1505 1506 1506 1505 1505 1505 1504 1505 1503 1506 1511 1508 1506 1511 1512 1512 1514 1515 1517 1514 1510 1511 1515 1513 1506 1505 1510 1511 1515 1517 1520 1531 1531 1524 1524 1521 1531 1551 1542 1524 1527 1533 1538 1541 1539 1538 1538 1539 1543 1545 1547 1550 1552 1554
1507 1508 1508 1507 1508 1507 1507 1507 1507 1507 1506 1506 1504 1504 1504 1501 1502 1502 1499 1507 1510 1499 1495 1498 1497 1498 1499 1499 1500 1499 1498 1497 1500 1504 1505 1505 1506 1504 1503 1503 1504 1506 1505 1509 1514 1509 1507 1512 1512 1513 1515 1515 1514 1510 1507 1511 1515 1511 1506 1506 1509 1511 1515 1515 1516 1525 1527 1525 1529 1520 1521 1542 1538 1519 1521 1530 1536 1541 1540 1536 1536 1537 1540 1543 1545 1548 1550 1552
1507 1507 1507 1507 1507 1507 1507 1507 1506 1506 1506 1504 1503 1504 1502 1501 1504 1498 1497 1509 1509 1496 1496 1499 1497 1499 1498 1498 1499 1498 1498 1497 1498 1502 1505 1505 1505 1504 1502 1501 1501 1504 1507 1508 1508 1506 1506 1509 1509 1510 1514 1512 1509 1506 1506 1512 1513 1508 1507 1508 1509 1512 1513 1514 1516 1521 1526 1531 1529 1518 1517 1535 1537 1523 1521 1529 1533 1535 1535 1532 1532 1534 1538 1541 1544 1546 1549 1551
1506 1506 1507 1507 1507 1507 1507 1506 1505 1505 1504 1503 1503 1502 1501 1502 1501 1498 1505 1512 1503 1495 1498 1497 1496 1498 1497 1497 1498 1496 1496 1498 1499 1501 1504 1505 1504 1504 1503 1503 1503 1504 1507 1508 1506 1505 1506 1508 1508 1508 1510 1508 1506 1507 1507 1510 1510 1508 1510 1511 1513 1515 1515 1516 1517 1519 1531 1536 1524 1512 1512 1524 1536 1529 1519 1522 1523 1521 1525 1528 1528 1531 1535 1539 1541 1544 1547 1549
1506 1506 1506 1506 1506 1506 1506 1505 1505 1504 1503 1503 1502 1501 1502 1501 1494 1499 1512 1509 1498 1497 1497 1495 1496 1496 1495 1494 1495 1496 1496 1497 1498 1500 1503 1503 1503 1504 1504 1506 1506 1506 1509 1510 1508 1506 1507 1511 1510 1508 1508 1507 1507 1509 1509 1509 1508 1510 1512 1513 1520 1523 1522 1524 1523 1527 1543 1541 1520 1509 1509 1517 1531 1527 1514 1512 1512 1511 1517 1522 1524 1527 1531 1536 1539 1542 1544 1547
1505 1506 1506 1506 1506 1506 1505 1506 1504 1503 1503 1502 1501 1501 1501 1498 1496 1501 1506 1502 1500 1500 1495 1496 1497 1495 1495 1494 1494 1496 1496 1497 1498 1497 1499 1500 1501 1502 1502 1502 1504 1509 1513 1510 1507 1507 1507 1507 1506 1506 1507 1507 1510 1511 1512 1511 1509 1511 1511 1515 1529 1536 1536 1539 1536 1535 1539 1532 1517 1510 1513 1520 1522 1513 1507 1510 1511 1509 1512 1517 1521 1524 1528 1533 1537 1540 1542 1545
1505 1505 1505 1506 1505 1505 1505 1505 1503 1503 1502 1500 1501 1500 1497 1500 1506 1504 1498 1497 1501 1499 1494 1497 1496 1494 1496 1496 1496 1497 1496 1498 1499 1497 1497 1498 1499 1500 1501 1500 1499 1505 1508 1504 1505 1508 1508 1505 1503 1506 1506 1505 1508 1509 1513 1515 1511 1512 1511 1516 1530 1537 1546 1552 1541 1535 1533 1523 1513 1511 1517 1524 1517 1507 1505 1507 1509 1509 1510 1514 1519 1522 1526 1530 1534 1538 1541 1543
1505 1505 1505 1505 1504 1504 1504 1503 1503 1502 1500 1500 1500 1497 1497 1505 1508 1501 1495 1496 1497 1496 1496 1497 1496 1496 1496 1494 1496 1497 1497 1500 1499 1498 1500 1499 1500 1501 1502 1504 1502 1502 1502 1503 1505 1505 1508 1508 1501 1502 1503 1502 1504 1504 1504 1508 1510 1509 1504 1509 1518 1520 1534 1543 1534 1533 1532 1518 1513 1519 1524 1522 1517 1512 1507 1504 1507 1509 1511 1514 1518 1522 1525 1529 1533 1535 1539 1542
1504 1504 1505 1505 1504 1504 1503 1502 1502 1500 1499 1500 1496 1494 1500 1507 1503 1497 1497 1497 1495 1496 1497 1496 1495 1497 1497 1496 1497 1496 1496 1499 1498 1498 1499 1498 1499 1500 1500 1503 1503 1502 1504 1507 1505 1502 1507 1506 1494 1494 1497 1497 1502 1500 1496 1502 1511 1507 1501 1507 1513 1506 1513 1524 1522 1523 1527 1522 1520 1524 1520 1509 1509 1512 1505 1504 1510 1509 1512 1514 1516 1521 1524 1528 1532 1534 1537 1541
1504 1504 1504 1504 1504 1503 1502 1502 1501 1499 1499 1497 1494 1496 1502 1503 1500 1498 1499 1498 1497 1497 1497 1497 1495 1495 1497 1498 1498 1498 1497 1498 1498 1498 1500 1498 1499 1501 1501 1502 1502 1503 1503 1504 1503 1503 1508 1503 1492 1495 1498 1495 1498 1498 1494 1501 1506 1505 1505 1508 1505 1498 1503 1519 1522 1517 1525 1535 1527 1518 1516 1507 1508 1514 1507 1505 1511 1509 1511 1514 1514 1519 1523 1526 1531 1533 1536 1539
1504 1504 1504 1504 1504 1503 1502 1501 1500 1499 1498 1494 1495 1501 1501 1499 1500 1499 1498 1498 1498 1497 1496 1496 1496 1495 1496 1497 1498 1498 1497 1498 1497 1497 1500 1502 1502 1505 1504 1503 1504 1503 1502 1502 1501 1499 1504 1502 1494 1496 1500 1496 1495 1495 1494 1495 1495 1501 1508 1503 1499 1503 1505 1514 1526 1526 1532 1542 1526 1511 1519 1517 1514 1519 1513 1506 1510 1510 1510 1512 1513 1517 1521 1524 1527 1530 1533 1536
1503 1504 1504 1504 1503 1502 1501 1500 1499 1499 1496 1494 1499 1504 1501 1499 1500 1499 1498 1498 1497 1497 1494 1494 1496 1497 1495 1494 1497 1497 1495 1498 1498 1495 1499 1502 1503 1506 1505 1503 1505 1503 1502 1504 1502 1499 1502 1503 1496 1493 1496 1495 1494 1497 1499 1497 1493 1497 1500 1493 1498 1515 1517 1515 1526 1531 1534 1540 1527 1514 1517 1513 1507 1512 1512 1506 1508 1508 1508 1509 1511 1514 1517 1520 1523 1526 1530 1533
1503 1503 1503 1503 1503 1502 1501 1500 1500 1497 1495 1496 1501 1503 1500 1499 1500 1499 1499 1499 1497 1496 1494 1494 1496 1496 1494 1493 1495 1497 1496 1496 1495 1495 1501 1503 1503 1506 1505 1503 1504 1503 1502 1502 1501 1498 1500 1504 1500 1493 1493 1495 1497 1500 1502 1501 1498 1498 1497 1492 1494 1506 1510 1510 1515 1517 1522 1531 1529 1522 1517 1508 1500 1501 1503 1503 1503 1503 1506 1507 1507 1510 1513 1517 1519 1523 1527 1531
1503 1501 1501 1503 1502 1502 1501 1500 1499 1496 1495 1498 1500 1501 1501 1500 1499 1499 1500 1499 1497 1496 1495 1496 1495 1496 1497 1495 1495 1497 1496 1495 1494 1495 1500 1502 1503 1506 1505 1505 1505 1503 1502 1502 1500 1499 1498 1503 1502 1494 1493 1498 1499 1498 1496 1496 1498 1502 1504 1500 1499 1500 1499 1505 1508 1504 1510 1522 1526 1525 1519 1508 1501 1498 1498 1500 1500 1501 1504 1505 1506 1508 1512 1515 1518 1522 1525 1529
1502 1499 1500 1503 1502 1501 1501 1499 1498 1497 1497 1500 1501 1501 1502 1502 1500 1499 1500 1499 1498 1497 1496 1496 1495 1496 1497 1497 1496 1497 1497 1497 1496 1497 1499 1500 1503 1505 1506 1507 1506 1504 1503 1501 1500 1500 1499 1501 1500 1494 1494 1496 1493 1489 1488 1489 1490 1495 1500 1498 1498 1500 1500 1511 1516 1504 1501 1512 1516 1520 1519 1509 1503 1502 1499 1499 1501 1502 1503 1505 1506 1508 1512 1516 1518 1521 1524 1528
1500 1498 1500 1502 1502 1501 1500 1499 1499 1498 1497 1500 1502 1503 1504 1504 1501 1500 1500 1499 1498 1497 1497 1497 1497 1497 1498 1498 1498 1497 1497 1499 1499 1498 1500 1501 1502 1505 1506 1507 1507 1504 1503 1500 1499 1500 1500 1501 1501 1496 1491 1490 1489 1488 1488 1489 1486 1487 1492 1490 1490 1494 1497 1509 1516 1505 1502 1506 1504 1509 1516 1511 1504 1502 1500 1501 1502 1504 1506 1507 1508 1509 1513 1516 1518 1522 1525 1527
1498 1498 1501 1502 1501 1501 1500 1499 1500 1499 1500 1503 1504 1504 1504 1504 1502 1501 1500 1500 1499 1498 1498 1499 1499 1499 1500 1499 1499 1499 1499 1502 1503 1501 1502 1503 1504 1507 1507 1507 1507 1504 1502 1500 1499 1501 1502 1503 1505 1500 1492 1488 1490 1489 1488 1489 1490 1490 1490 1486 1487 1490 1489 1494 1497 1494 1499 1504 1504 1514 1518 1511 1506 1504 1502 1503 1504 1507 1509 1510 1511 1513 1515 1517 1520 1522 1525 1527
1500 1500 1502 1501 1501 1501 1499 1498 1500 1501 1503 1504 1504 1504 1505 1505 1504 1503 1502 1502 1502 1500 1500 1501 1501 1501 1501 1500 1500 1500 1501 1505 1507 1505 1504 1505 1507 1508 1508 1507 1506 1504 1503 1504 1502 1503 1505 1505 1507 1509 1507 1502 1500 1498 1496 1493 1492 1492 1489 1487 1489 1489 1486 1490 1490 1493 1501 1501 1501 1514 1515 1506 1506 1506 1503 1504 1506 1508 1510 1512 1514 1515 1516 1519 1521 1523 1525 1527
1500 1501 1502 1502 1502 1501 1499 1498 1498 1500 1504 1504 1504 1505 1505 1505 1507 1507 1505 1505 1505 1503 1502 1504 1504 1502 1502 1501 1501 1502 1501 1503 1507 1507 1506 1506 1507 1508 1508 1508 1506 1504 1504 1506 1504 1503 1505 1505 1506 1511 1514 1514 1513 1509 1503 1496 1492 1492 1491 1492 1494 1492 1490 1494 1495 1501 1508 1502 1498 1506 1507 1503 1506 1507 1505 1506 1507 1509 1511 1513 1515 1516 1518 1520 1522 1524 1526 1527
1499 1499 1500 1501 1501 1501 1501 1501 1499 1500 1503 1504 1506 1506 1505 1505 1508 1508 1507 1506 1506 1505 1505 1505 1505 1503 1503 1502 1503 1505 1503 1502 1505 1507 1507 1507 1508 1508 1508 1508 1507 1506 1506 1507 1505 1503 1504 1504 1506 1507 1507 1508 1511 1507 1499 1495 1495 1496 1497 1496 1495 1494 1493 1495 1498 1501 1502 1502 1503 1502 1499 1503 1506 1505 1505 1506 1506 1509 1511 1513 1516 1517 1518 1521 1522 1524 1526 1527
1498 1498 1499 1500 1501 1500 1501 1502 1501 1500 1502 1504 1506 1508 1507 1506 1507 1507 1507 1507 1507 1507 1506 1505 1505 1505 1506 1506 1505 1507 1507 1505 1506 1508 1508 1509 1508 1508 1509 1507 1506 1507 1506 1505 1505 1503 1504 1506 1506 1505 1504 1503 1503 1502 1498 1497 1498 1498 1498 1497 1496 1495 1496 1497 1500 1500 1497 1505 1511 1501 1496 1502 1501 1499 1503 1504 1505 1508 1509 1513 1517 1518 1519 1521 1523 1524 1525 1527
1499 1500 1501 1501 1501 1500 1500 1502 1502 1501 1503 1505 1507 1509 1508 1508 1508 1508 1508 1508 1508 1508 1507 1507 1507 1507 1507 1508 1507 1509 1510 1509 1510 1511 1510 1510 1509 1507 1507 1506 1505 1506 1505 1503 1504 1503 1504 1507 1506 1504 1505 1503 1501 1500 1499 1498 1499 1499 1498 1498 1496 1496 1497 1498 1499 1498 1499 1507 1510 1502 1500 1503 1497 1494 1499 1502 1503 1507 1510 1514 1518 1518 1520 1521 1522 1524 1525 1526
1501 1501 1503 1503 1502 1502 1502 1504 1503 1502 1504 1506 1508 1509 1509 1509 1510 1511 1510 1509 1509 1508 1508 1510 1511 1509 1508 1508 1508 1511 1513 1512 1514 1515 1513 1511 1510 1508 1508 1508 1506 1505 1503 1503 1504 1504 1505 1509 1508 1506 1505 1504 1502 1502 1500 1498 1499 1498 1497 1497 1497 1497 1498 1499 1499 1499 1501 1503 1503 1499 1502 1503 1496 1494 1498 1501 1504 1508 1511 1515 1517 1518 1520 1520 1521 1524 1525 1526
1502 1502 1503 1503 1503 1504 1504 1505 1503 1503 1505 1507 1508 1510 1510 1510 1511 1512 1512 1511 1511 1510 1510 1511 1512 1510 1509 1509 1509 1512 1514 1513 1513 1516 1515 1513 1512 1511 1511 1511 1509 1506 1505 1505 1504 1504 1507 1511 1509 1507 1507 1506 1503 1501 1500 1498 1498 1499 1498 1497 1497 1498 1498 1498 1498 1499 1500 1502 1502 1500 1502 1502 1497 1495 1499 1504 1507 1509 1512 1515 1516 1517 1519 1520 1521 1523 1524 1526
1502 1503 1503 1502 1503 1504 1505 1504 1503 1503 1504 1506 1508 1511 1511 1511 1512 1513 1514 1514 1514 1513 1512 1513 1513 1512 1511 1511 1512 1513 1515 1514 1514 1515 1515 1514 1514 1514 1513 1513 1512 1509 1507 1507 1507 1505 1506 1509 1508 1507 1511 1509 1503 1502 1502 1499 1496 1498 1501 1503 1503 1501 1501 1500 1501 1501 1502 1504 1504 1503 1505 1504 1500 1499 1503 1507 1509 1510 1512 1514 1515 1517 1519 1520 1521 1522 1524 1526
1504 1504 1504 1503 1503 1504 1504 1504 1503 1504 1505 1506 1509 1510 1511 1512 1513 1513 1515 1516 1516 1515 1515 1515 1514 1513 1512 1513 1515 1516 1516 1516 1516 1516 1517 1516 1515 1515 1514 1513 1513 1513 1510 1509 1509 1508 1508 1509 1507 1510 1515 1511 1503 1502 1502 1501 1505 1508 1509 1510 1508 1505 1503 1502 1501 1502 1503 1503 1505 1508 1510 1507 1502 1502 1506 1509 1510 1511 1513 1514 1516 1517 1519 1520 1521 1523 1524 1527